Tracking 31027 objects as of 19-Jul-2025
HD Live streaming from Space Station
objects crossing your sky now

COSMOS 1275 DEB

Track COSMOS 1275 DEB now!
10-day predictions


NORAD ID: 13816
Int'l Code: 1981-053HP
Perigee: 829.2 km
Apogee: 1,061.1 km
Inclination: 83.0 °
Period: 103.8 minutes
Semi major axis: 7316 km
RCS: 0.0104 m2 (small)
Launch date: June 4, 1981
Source: Commonwealth of Independent States (former USSR) (CIS)
Launch site: PLESETSK MISSILE AND SPACE COMPLEX (PKMTR)

Note: This is SATELLITE DEBRIS
Your satellite tracking list
FREGAT DEB
Track 1 satellite(s)




NASA's NSSDC Master Catalog

Two Line Element Set (TLE):
1 13816U 81053HL  25199.78965678  .00001357  00000-0  10319-2 0  9990
2 13816  82.9861 322.9772 0158474  58.4158  92.0988 13.87332331114036
Source of the keplerian elements: AFSPC